Elkins, WV

12:38 PM EDT on March 23, 2017 (GMT -0400)
Elkins-Randolph County

Weather History for KEKN - June, 2012

Change the Weather History Date:

Tuesday, June 19, 2012

  Actual Average Record
Temperature  
Mean Temperature 74 °F 67 °F  
Max Temperature 87 °F 79 °F 89 °F (1905)
Min Temperature 60 °F 56 °F 37 °F (1959)
Degree Days  
Heating Degree Days 0 1  
Month to date heating degree days 57 45  
Since 1 June heating degree days 57 45  
Since 1 July heating degree days 4764 5842  
Cooling Degree Days 9 3  
Month to date cooling degree days 31 45  
Year to date cooling degree days 94 68  
Since 1 June cooling degree days 31 45  
Growing Degree Days 24 (Base 50)    
Moisture  
Dew Point 62 °F    
Average Humidity 72    
Maximum Humidity 100    
Minimum Humidity 44    
Precipitation  
Precipitation 0.00 in 0.15 in 1.88 in (1910)
Month to date precipitation 1.70 2.70  
Year to date precipitation 19.38 21.91  
Snow  
Snow 0.00 in - - ()
Month to date snowfall 0.0  
Since 1 September snowfall 30.6  
Snow Depth 0.00 in    
Sea Level Pressure  
Sea Level Pressure 30.17 in    
Wind  
Wind Speed 3 mph (WNW)    
Max Wind Speed 12 mph    
Max Gust Speed 15 mph    
Visibility 5 miles    
Events Fog    
T = Trace of Precipitation, MM = Missing Value Source: NWS Daily Summary

Daily Weather History Graph

Daily Weather History Graph

Search for Another Location

Airport or City:

Trip Planner

Search our weather history database for the weather conditions in past years. The results will help you decide how hot, cold, wet, or windy it might be!

Date:

Astronomy

Jun. 19, 2012 Rise Set
Actual Time 5:54 AM EDT 8:47 PM EDT
Civil Twilight 5:21 AM EDT 9:19 PM EDT
Nautical Twilight 4:41 AM EDT 10:00 PM EDT
Astronomical Twilight 3:54 AM EDT 10:46 PM EDT
Moon 5:56 AM EDT (6/19) 8:51 PM EDT (6/19)
Length of Visible Light 15h 58m
Length of Day
14h 53m
New Moon, 0% of the Moon is Illuminated
Jun 19
New Moon
Jun 26
First Quarter
Jul 3
Full
Jul 10
Last Quarter
Jul 19
New

Hourly Weather History & Observations

Time (EDT) Temp. Heat Index Dew Point Humidity Pressure Visibility Wind Dir Wind Speed Gust Speed Precip Events Conditions
12:51 AM 64.9 °F - 63.0 °F 93% 30.11 in 5.0 mi Calm Calm - N/A   Overcast
1:51 AM 64.9 °F - 63.0 °F 93% 30.11 in 4.0 mi Calm Calm - N/A   Overcast
2:28 AM 64.4 °F - 62.6 °F 94% 30.14 in 2.5 mi Calm Calm - N/A   Mostly Cloudy
2:36 AM 64.4 °F - 62.6 °F 94% 30.14 in 5.0 mi Calm Calm - N/A   Mostly Cloudy
2:51 AM 64.0 °F - 62.1 °F 93% 30.12 in 4.0 mi Calm Calm - N/A   Scattered Clouds
3:04 AM 62.6 °F - 62.6 °F 100% 30.14 in 2.0 mi Calm Calm - N/A   Clear
3:22 AM 62.6 °F - 62.6 °F 100% 30.15 in 1.8 mi Calm Calm - N/A   Partly Cloudy
3:30 AM 62.6 °F - 62.6 °F 100% 30.15 in 3.0 mi Calm Calm - N/A   Partly Cloudy
3:37 AM 62.6 °F - 62.6 °F 100% 30.15 in 2.0 mi Calm Calm - N/A   Scattered Clouds
3:47 AM 62.6 °F - 62.6 °F 100% 30.15 in 1.5 mi Calm Calm - N/A   Scattered Clouds
3:51 AM 63.0 °F - 62.1 °F 97% 30.14 in 1.5 mi Calm Calm - N/A   Scattered Clouds
4:00 AM 62.6 °F - 60.8 °F 94% 30.15 in 2.5 mi Calm Calm - N/A   Partly Cloudy
4:11 AM 62.6 °F - 60.8 °F 94% 30.15 in 1.2 mi Calm Calm - N/A   Partly Cloudy
4:22 AM 62.6 °F - 60.8 °F 94% 30.15 in 0.8 mi Calm Calm - N/A   Mist
4:32 AM 60.8 °F - 60.8 °F 100% 30.16 in 0.2 mi Calm Calm - N/A Fog Fog
4:47 AM 60.8 °F - 60.8 °F 100% 30.16 in 1.0 mi Calm Calm - N/A   Mist
4:51 AM 61.0 °F - 60.1 °F 97% 30.15 in 1.2 mi Calm Calm - N/A   Scattered Clouds
4:57 AM 60.8 °F - 60.8 °F 100% 30.16 in 0.8 mi Calm Calm - N/A   Mist
5:17 AM 60.8 °F - 59.0 °F 94% 30.17 in 1.2 mi Calm Calm - N/A   Mostly Cloudy
5:42 AM 60.8 °F - 59.0 °F 94% 30.17 in 0.5 mi Calm Calm - N/A Fog Fog
5:51 AM 61.0 °F - 59.0 °F 93% 30.16 in 0.8 mi Calm Calm - N/A   Mist
6:01 AM 60.8 °F - 59.0 °F 94% 30.17 in 0.2 mi Calm Calm - N/A Fog Fog
6:51 AM 60.8 °F - 60.8 °F 100% 30.19 in 0.2 mi Calm Calm - N/A Fog Fog
7:51 AM 64.0 °F - 62.1 °F 93% 30.19 in 0.5 mi Calm Calm - N/A Fog Fog
8:06 AM 64.4 °F - 62.6 °F 94% 30.21 in 2.0 mi Calm Calm - N/A   Overcast
8:30 AM 66.2 °F - 64.4 °F 94% 30.21 in 3.0 mi Calm Calm - N/A   Scattered Clouds
8:51 AM 69.1 °F - 64.9 °F 87% 30.19 in 6.0 mi Calm Calm - N/A   Clear
9:51 AM 75.2 °F - 66.2 °F 73% 30.21 in 10.0 mi Calm Calm - N/A   Clear
10:51 AM 80.1 °F 81.5 °F 63.0 °F 56% 30.18 in 10.0 mi West 5.8 mph - N/A   Mostly Cloudy
11:51 AM 82.4 °F 83.4 °F 62.6 °F 51% 30.22 in 10.0 mi NW 8.1 mph - N/A   Mostly Cloudy
12:51 PM 84.0 °F 84.4 °F 61.0 °F 46% 30.19 in 10.0 mi WNW 5.8 mph - N/A   Scattered Clouds
1:51 PM 82.0 °F 82.7 °F 61.0 °F 49% 30.19 in 10.0 mi West 6.9 mph - N/A   Clear
2:51 PM 84.2 °F 85.0 °F 62.6 °F 48% 30.21 in 10.0 mi WNW 10.4 mph - N/A   Partly Cloudy
3:51 PM 82.9 °F 84.0 °F 63.0 °F 51% 30.17 in 10.0 mi West 4.6 mph - N/A   Partly Cloudy
4:51 PM 84.9 °F 85.0 °F 61.0 °F 44% 30.16 in 10.0 mi West 4.6 mph - N/A   Partly Cloudy
5:51 PM 84.9 °F 85.9 °F 63.0 °F 48% 30.16 in 10.0 mi NW 8.1 mph - N/A   Clear
6:51 PM 84.0 °F 84.5 °F 62.1 °F 47% 30.16 in 10.0 mi WNW 5.8 mph - N/A   Clear
7:51 PM 82.0 °F 83.4 °F 64.0 °F 54% 30.16 in 10.0 mi Calm Calm - N/A   Clear
8:51 PM 73.0 °F - 66.0 °F 79% 30.17 in 10.0 mi Calm Calm - N/A   Clear
9:51 PM 68.0 °F - 64.9 °F 90% 30.19 in 10.0 mi Calm Calm - N/A   Clear
10:51 PM 66.0 °F - 63.0 °F 90% 30.20 in 8.0 mi Calm Calm - N/A   Clear
11:51 PM 64.9 °F - 63.0 °F 93% 30.21 in 5.0 mi Calm Calm - N/A   Clear